www.pogodaiklimat.ru

Погода и климат >> Архив погоды >> Казахстан >> Анкаты


ПОГОДА в Анкаты

  • Прогноз погоды в Анкаты
  • Монитор погоды в Анкаты
  • Климат города

АРХИВ ПОГОДЫ в Анкаты

Время (UTC), дата Ветер
(напр.,м/с)
 
Видим.   Явления Облачность Т
(С)
Тd
(С)
f
(%)
Тe
(С)
Тes
(С)
Комфортность P
(гПа)
Po
(гПа)
Тmin
(С)
Tmax
(С)
R
(мм)
S
(см)
03 21.03 СВ 5 18 км н/о -5.9 -44.5 3 -12 -12 1015.4 1011.9 53
06 21.03 н/о н/о
09 21.03 н/о н/о
12 21.03 н/о н/о
15 21.03 В 9 н/о н/о -1.5 -41.4 3 -8 -8 1014.0 1010.6 +0.1
18 21.03 В 8 н/о н/о -2.6 -42.2 3 -9 -9 1014.7 1011.2 +0.1
21 21.03 В 6 н/о н/о -4.6 -43.6 3 -11 -11 1015.3 1011.8
00 22.03 В 6 17 км н/о -5.4 -44.1 3 -12 -12 1015.2 1011.7
03 22.03 В 8 17 км н/о -4.8 -43.7 3 -12 -12 1015.9 1012.4 53
06 22.03 В 6 н/о н/о -4.6 -43.6 3 -11 -11 1017.8 1014.3
09 22.03 В 8 н/о н/о -3.6 -42.9 3 -11 -11 1018.4 1014.9
12 22.03 В 7 н/о н/о -2.9 -42.4 3 -9 -9 1019.2 1015.7
15 22.03 В 5 н/о н/о -2.2 -41.9 3 -7 -7 1020.6 1017.1 -2.1
18 22.03 н/о н/о -2.1
21 22.03 н/о н/о
12 23.03 н/о н/о
15 23.03 В 1 н/о н/о +0.8 -39.8 3 +1 +1 1025.1 1021.7 +4.4
18 23.03 ЮВ 2 н/о н/о -0.4 -40.6 3 -2 -2 1025.4 1021.9 +4.4
21 23.03 В 1 н/о н/о -2.4 -42.0 3 -3 -3 1025.0 1021.5
00 24.03 н/о н/о
03 24.03 н/о н/о
06 24.03 н/о н/о
09 24.03 н/о н/о
12 24.03 СЗ 3 н/о н/о +2.4 -38.7 3 -0 -0 1025.0 1021.6
15 24.03 З 2 н/о н/о +1.1 -39.6 3 -1 -1 1024.8 1021.4 +2.4
18 24.03 ЮЗ 1 н/о н/о +0.9 -39.7 3 +1 +1 1024.9 1021.5 +2.4
21 24.03 Ю 4 н/о н/о 0.0 -40.3 3 -4 -4 1023.0 1019.6
00 25.03 ЮВ 5 н/о н/о -0.9 -41.0 3 -6 -6 1021.0 1017.5
03 25.03 ЮВ 5 н/о н/о -0.3 -40.5 3 -5 -5 1018.0 1014.6 <0.5
06 25.03 ЮВ 5 20 км н/о +2.7 -38.5 3 -1 -1 1014.9 1011.5
09 25.03 н/о н/о
12 25.03 11 км н/о
15 25.03 Ю 5 12 км н/о +2.8 -38.4 3 -1 -1 1009.3 1005.9 +3.4
18 25.03 н/о н/о +3.4
21 25.03 З 5 19 км н/о +0.8 -39.8 3 -3 -3 1011.0 1007.6
00 26.03 З 4 20 км ясно -1.3 -41.2 3 -5 -5 1012.5 1009.1
03 26.03 З 3 20 км ясно -3.0 -42.4 3 -7 -6 1014.5 1011.0 <0.5
06 26.03 СЗ 2 20 км н/о +0.6 -39.9 3 -1 -1 1015.8 1012.4 1
09 26.03 н/о н/о
12 26.03 н/о н/о
15 26.03 З 3 н/о н/о +0.4 -40.1 3 -3 -3 1015.7 1012.3 +4.1
18 26.03 ЮВ 2 4500 м н/о -1.9 -41.7 3 -4 -4 1015.9 1012.5 +4.1
21 26.03 Ю 3 20 км н/о -1.7 -41.5 3 -5 -5 1014.3 1010.9
00 27.03 Ю 3 20 км н/о -3.1 -42.5 3 -7 -7 1012.9 1009.4
03 27.03 Ю 2 20 км н/о -2.6 -42.2 3 -5 -5 1011.1 1007.7 37
06 27.03 Ю 3 20 км н/о +2.4 -38.7 3 -0 -0 1009.9 1006.5
09 27.03 н/о н/о
15 27.03 ЮВ 4 20 км н/о +1.5 -39.3 3 -2 -2 1005.7 1002.3 +5.9
18 27.03 Ю 2 13 км н/о +1.9 -39.0 3 0 0 1005.0 1001.6 +5.9
21 27.03 Ю 5 9000 м н/о +1.7 -39.1 3 -2 -2 1003.0 999.6
00 28.03 Ю 5 10 км н/о +1.5 -39.3 3 -3 -3 1000.9 997.6

 

Местоположение метеостанции Анкаты (Западно-Казахстанская область, Казахстан): широта 50.83 долгота 52.00 высота над уровнем моря 25 м.

В архиве по умолчанию представлена погода в Анкаты за последнюю неделю. Архивные данные за месяц целиком и за предыдущие месяцы, начиная с января 2011 года, Вы можете получить, выбрав интересующий диапазон дат из раскрывающегося списка и нажав кнопку "Ввод!".

Внимание! Время в таблицах - всемирное. Для получения местного времени необходимо прибавить поправку, которая в Анкаты равна 5 ч.

Смотрите также архив погоды в соседних городах и на ближайших метеорологических станциях:

Погода в Уральске (Западно-Казахстанская область, Казахстан) (69 км)
Погода в Джамбейты (Западно-Казахстанская область, Казахстан) (76 км)
Погода в Аксае (Западно-Казахстанская область, Казахстан) (80 км)
Погода в Январцево (Западно-Казахстанская область, Казахстан) (87 км)
Погода в Чапаево (Западно-Казахстанская область, Казахстан) (91 км)
Погода в Первомайском (Оренбургская область, Россия) (121 км)
Погода в Каменке (Западно-Казахстанская область, Казахстан) (122 км)
Погода в Илеке (Оренбургская область, Россия) (123 км)
Погода в Чингирлау (Западно-Казахстанская область, Казахстан) (150 км)
Погода в Перелюбе (Саратовская область, Россия) (164 км)

Пояснения к столбцам:

Ветер - указаны скорость ветра в м/с - средняя за 10 мин, порывы в срок и между сроками (в фигурных скобках) и направление, откуда дует ветер: С - северный, СВ - северо-восточный, В - восточный, ЮВ - юго-восточный, Ю - южный, ЮЗ - юго-западный, З - западный, СЗ - северо-западный.
Видимость - горизонтальная дальность видимости в метрах или километрах. При видимости от 1 до 10 км при отсутствии осадков обычно наблюдается дымка, при ухудшении видимости до 1 км и менее - туман. В сухую погоду видимость может ухудшаться дымом, пылью или мглою.
Явления - указаны атмосферные явления, наблюдавшиеся в срок или в последний час перед сроком; фигурными скобками обозначены явления, наблюдавшиеся между сроками (за 1-3 часа до срока); квадратными скобками обозначены град или гололедные отложения с указанием их диаметра в мм.
Облачность - указаны через наклонную черту общая и нижняя облачность в баллах и высота нижней границы облаков в метрах; квадратными скобками обозначены формы облаков: Ci - перистые, Cs - перисто-слоистые, Cc - перисто-кучевые, Ac - высококучевые, As - высокослоистые, Sc - слоисто-кучевые, Ns - слоисто-дождевые, Cu - кучевые, Cb - кучево-дождевые. Подробнее классификацию облаков см. в Атласе облаков (PDF).
T - Температура воздуха - температура, измеренная на высоте 2 м над землей.
Td - Температура точки росы - температура, при понижении до которой содержащийся в воздухе водяной пар достигнет насыщения.
f - Относительная влажность воздуха - влажноcть воздуха, измеренная на высоте 2 м над землей.
Te - Эффективная температура - температура, которую ощущает одетый по сезону человек в тени. Характеристика душности погоды. При расчете учитывается влияние влажности воздуха и скорости ветра на теплоощущения человека.
Tes - Эффективная температура на солнце - температура, которую ощущает человек, с поправкой на солнечный нагрев. Характеристика знойности погоды. Зависит от высоты солнца над горизонтом, облачности и скорости ветра. Ночью, в пасмурную погоду, а также при ветре 12 м/с и более поправка равна нулю.
P - Атмосферное давление - приведенное к уровню моря атмосферное давление.
Po - Атмосферное давление - измеренное на уровне метеостанции атмосферное давление.
Tmin - Минимальная температура - минимум температуры воздуха на высоте 2 м над землей.
Tmax - Максимальная температура - максимум температуры воздуха на высоте 2 м над землей.
R - Количество осадков - Количество выпавших осадков, мм. При наведении курсора мыши на число - период времени, за который выпало указанное количество осадков.
S - Снежный покров - Высота снежного покрова, см. При наведении курсора мыши на число - состояние снежного покрова и степень покрытия местности в баллах.